Flag for Poland Past Weather in Gorzów Wielkopolski, Poland — Yesterday and Last 2 Weeks

Now
61 °F

Fog.


Feels Like: 61 °F
Forecast: 62 / 79 °F
Wind: 2 mph from Northeast

Location: Gorzow Wlkp

Current Time: Jul 24, 2016 at 1:21:33 AM

Latest Report: Jul 24, 2016 at 12:00 AM


Visibility: 5 mi

Pressure: 30.12 "Hg

Humidity: 90%

Dew Point: 58 °F

Location of Gorzów WielkopolskiLocation

Past Weather in Gorzów Wielkopolski — Graph

°F

Gorzów Wielkopolski Temperature Yesterday

Maximum temperature yesterday: 72 °F (at 2:00 PM)
Minimum temperature yesterday: 58 °F (at 5:00 AM)
Average temperature yesterday: 66 °F

High & Low Weather Summary for the Past Weeks

 TemperatureHumidityPressure
High85 °F (Jul 11, 1:00 PM)97% (Jul 17, 7:00 AM)30.24 "Hg (Jul 17, 7:00 AM)
Low52 °F (Jul 16, 5:00 AM)26% (Jul 22, 3:00 PM)29.73 "Hg (Jul 11, 5:00 AM)
Average67 °F68%29.99 "Hg
* Reported Jul 9 12:00 AM — Jul 24 12:00 AM, Gorzów Wielkopolski, Weather by CustomWeather, © 2016

Note: Actual official high and low records may vary slightly from our data, if they occured in-between our weather recording intervals... More about our weather records

Advertising

Gorzów Wielkopolski Weather History for the Previous 24 Hours

Scroll right to see more
 ConditionsComfort  
Time TempWeatherWind HumidityBarometerVisibility
12:00 AM
Sun, Jul 24
61 °FFog.2 mph90%30.12 "Hg5 mi
11:00 PM
Sat, Jul 23
63 °FPassing clouds.1 mph84%30.11 "Hg6 mi
10:00 PM66 °FPassing clouds.1 mph78%30.11 "Hg6 mi
9:00 PM67 °FOvercast.2 mph76%30.11 "Hg7 mi
8:00 PM68 °FOvercast.2 mph74%30.11 "Hg9 mi
7:00 PM68 °FOvercast.3 mph73%30.11 "Hg9 mi
6:00 PM69 °FOvercast.3 mph72%30.11 "Hg9 mi
5:00 PM69 °FOvercast.3 mph72%30.12 "Hg12 mi
4:00 PM70 °FOvercast.3 mph70%30.12 "Hg12 mi
3:00 PM72 °FOvercast.3 mph66%30.12 "Hg12 mi
2:00 PM72 °FOvercast.5 mph66%30.12 "Hg12 mi
1:00 PM71 °FOvercast.3 mph67%30.12 "Hg16 mi
12:00 PM71 °FOvercast.3 mph64%30.11 "Hg16 mi
11:00 AM71 °FOvercast.3 mph64%30.11 "Hg16 mi
10:00 AM70 °FPartly sunny.3 mph72%30.10 "Hg12 mi
9:00 AM69 °FPartly sunny.3 mph74%30.11 "Hg9 mi
8:00 AM66 °FScattered clouds.3 mph80%30.11 "Hg9 mi
7:00 AM63 °FPassing clouds.2 mph87%30.09 "Hg9 mi
6:00 AM58 °FPassing clouds.2 mph91%30.09 "Hg12 mi
5:00 AM58 °FPassing clouds.2 mph90%30.09 "Hg12 mi
4:00 AM58 °FPassing clouds.2 mph88%30.08 "Hg19 mi
3:00 AM59 °FPassing clouds.2 mph85%30.08 "Hg25 mi
2:00 AM61 °FPassing clouds.1 mph79%30.08 "Hg25 mi
1:00 AM62 °FPassing clouds.2 mph74%30.08 "Hg25 mi
Weather by CustomWeather, © 2016

See weather overviewHow to use our weather pages